星链-33713 (STARLINK-33713)

导读

STARLINK-33713是美国于2025年4月6日发射的星链卫星,隶属于SpaceX星链(Starlink)低轨卫星互联网星座计划。星链系统旨在为全球提供高速低延迟互联网覆盖,该卫星入轨后将补充完善星座组网,进一步提升星座服务覆盖范围与通信容量,助力推进全球卫星互联网服务的普及。

基本信息
目录编号:
63479
目录名称:
STARLINK-33713
国际标识:
2025-070V
轨道中心:
EARTH
卫星名称:
星链-33713
卫星全名:
星链-33713 (STARLINK-33713)
卫星状态:
在轨 (已飞行523 天)
发射日期:
2025-04-06 UTC
国别 :
美国 (US)
星等 :
--
该卫星已列入 空间交会检测服务 Space Conjunction Data Service (SCDS) ,当前飞行风险评估等级: 高风险
轨道信息
数据来源 国际轨道数据 AOE轨道数据
星历时间 2026-09-11T11:44:30+0800
9小时前
查看轨道信息
2026-09-06T07:00:00+0800
5天前
查看轨道信息
半长轴 6861.142km 6861.205km
偏心率 0.0003617 0.0001878
轨道倾角 43.003° 43.002°
近地点辐角 294.370° 274.258°
升交点赤经 288.678° 318.034°
平近点角 65.677° 269.380°
近地点 480.523km 481.779km
远地点 485.487km 484.357km
周期 94.266分钟 94.267分钟
每日圈数 15.275949 15.275737
详细信息
固有亮度:
5
最大亮度:
2.5
卫星平台:
Starlink V1.0
覆盖范围:
全球
运营商:
太空探索技术公司
运营商所在国:
美国
制造商(研发单位):
太空探索技术公司
制造商所在国:
美国
使用方式:
暂无
卫星简介
Starlink 计划是 SpaceX 推出的全球卫星互联网项目,通过发射低轨道卫星,为全球尤其是偏远地区提供高速、低延迟的互联网服务。自 2019 年起,Starlink 已部署数千颗卫星,旨在缩小全球数字鸿沟,推动互联网普及。该项目还为军事、航空等行业提供通信支持,带来广泛经济效益。
2D轨道图
3D轨道图
轨道高度分析图
轨道倾角分析图
轨道综合分析图
查看轨道综合分析图
与全量物体交会距离演化趋势
与全量物体交会风险概率演化趋势